Hourly Data Report for October 31, 2016

All times are specified in Local Standard Time (LST). Add 1 hour to adjust for Daylight Saving Time where and when it is observed.

CHARLOTTETOWN A
PRINCE EDWARD ISLAND

46°17'21.000" N
63°07'09.000" W
48.50 m
8300301
71706
YYG

Download Data

Hourly Data (October 2016)
Hourly Data Report for October 31, 2016
Temp Definition
°C
Dew Point Temp Definition
°C
Rel Hum Definition
%
Wind Dir Definition
10's deg

Wind Spd Definition
km/h
Visibility Definition
km
Stn Press Definition
kPa
Hmdx Definition


Wind Chill Definition


Weather Definition


TIME
00:00 Legend Double Dagger 6.0 5.3 95 30 7 9.7 100.33     Rain Showers,Fog
01:00 Legend Double Dagger 6.0 5.4 96 28 8 9.7 100.35     Rain Showers,Fog
02:00 Legend Double Dagger 6.0 5.4 96 30 9 9.7 100.36     Drizzle,Fog
03:00 Legend Double Dagger 6.0 5.4 96 30 7 8.1 100.36     Drizzle,Fog
04:00 Legend Double Dagger 6.0 5.4 96 30 6 4.8 100.39     Drizzle,Fog
05:00 Legend Double Dagger 6.1 5.5 96 30 8 6.4 100.42     Drizzle,Fog
06:00 Legend Double Dagger 6.0 5.4 96 31 6 12.9 100.47     Rain
07:00 Legend Double Dagger 5.9 5.3 96 35 4 16.1 100.50     Rain
08:00 Legend Double Dagger 6.3 5.9 97 33 3 12.9 100.57     Rain,Drizzle
09:00 Legend Double Dagger 6.7 6.1 96 34 3 12.9 100.63     Drizzle
10:00 Legend Double Dagger 7.3 6.6 95 34 4 16.1 100.69     Drizzle
11:00 Legend Double Dagger 7.3 5.6 89 1 5 12.9 100.76     Rain
12:00 Legend Double Dagger 7.4 5.9 90 35 8 12.9 100.77     Rain
13:00 Legend Double Dagger 7.8 6.3 90 3 9 16.1 100.77     LegendNANA
14:00 Legend Double Dagger 7.3 6.1 92 1 14 12.9 100.80     Rain Showers
15:00 Legend Double Dagger 7.6 6.2 91 1 12 12.9 100.87     Rain Showers
16:00 Legend Double Dagger 7.3 5.8 90 1 8 16.1 100.95     Rain Showers
17:00 Legend Double Dagger 6.9 5.5 91 36 11 16.1 101.02     Rain Showers
18:00 Legend Double Dagger 6.7 5.3 91 36 12 19.3 101.14     Rain Showers
19:00 Legend Double Dagger 6.6 4.6 87 36 9 24.1 101.22     LegendNANA
20:00 Legend Double Dagger 6.8 5.0 88 36 12 24.1 101.25     Cloudy
21:00 Legend Double Dagger 6.6 4.8 88 1 14 24.1 101.31     LegendNANA
22:00 Legend Double Dagger 6.4 4.6 88 1 17 24.1 101.39     LegendNANA
23:00 Legend Double Dagger 6.4 4.4 87 36 16 24.1 101.45     Cloudy

Notes on Data Quality.

Legend

  • E = Estimated
  • M = Missing
  • NA = Not Available
  • ‡ = Partner data that is not subject to review by the National Climate Archives
Date modified: